Meteo Giornale » Osservazioni meteo Italia » Genova-Sestri

ore: 22:50 - Osservazioni Meteo Genova-Sestri
Lat. 44° 25' N Lon. 8° 51' E Alt. 2 metri s.l.m.

sereno Europe/Rome

19 °C

Sereno

Temp. 24 Ore

18 °C

21 °C

Nord/Nord-Est

7.4 Km/h

Dew point 9 °C

Umidità 52 %

Visibilità  10 Km

Il sole sorge alle ore 05:42

Il sole tramonta alle ore 21:02

Data e Ora Cielo e Fenomeni T °C DP °C Um. % Pres. hPa Vis. km Vento km/h
Ieri h: 22:50 sereno Sereno 19 9 52 1015 10 N/NE 7.4
Ieri h: 22:20 sereno Sereno 19 10 55 1015 10 NE 9.3
Ieri h: 21:50 poco_nuvoloso Poco Nuvoloso 19 9 52 1014 10 N 9.3
Ieri h: 21:20 nuvoloso Nuvoloso 20 10 52 1014 10 N 1.8
Ieri h: 20:50 nuvoloso Nuvoloso 20 11 56 1014 10 N 3.7
Ieri h: 20:20 poco_nuvoloso Poco Nuvoloso 20 11 56 1014 10 SO 7.4
Ieri h: 19:50 poco_nuvoloso Poco Nuvoloso 21 11 52 1014 10 SO 9.3
Ieri h: 19:20 nuvoloso Nuvoloso 21 11 52 1014 10 O/SO 11.1
Ieri h: 18:20 nuvoloso Nuvoloso 21 11 52 1014 10 O/SO 11.1
Ieri h: 17:50 nuvoloso Nuvoloso 21 11 52 1014 10 O/SO 13
Ieri h: 17:20 poco_nuvoloso Poco Nuvoloso 21 12 56 1015 10 SO 11.1
Ieri h: 16:50 poco_nuvoloso Poco Nuvoloso 21 11 52 1015 10 SO 13
Ieri h: 16:20 nuvoloso Nuvoloso 21 12 56 1015 10 O/SO 13
Ieri h: 15:50 nuvoloso Nuvoloso 21 13 60 1015 10 O/SO 13
Ieri h: 14:50 nuvoloso Nuvoloso 20 11 56 1015 10 SO 11.1
Ieri h: 14:20 nuvoloso Nuvoloso 21 11 52 1016 10 S/SO 11.1
Ieri h: 13:50 nuvoloso Nuvoloso 21 9 46 1016 10 SO 13
Ieri h: 13:20 nuvoloso Nuvoloso 20 11 56 1016 10 O/SO 14.8
Ieri h: 12:50 poco_nuvoloso Poco Nuvoloso 20 11 56 1016 10 SO 13
Ieri h: 12:20 poco_nuvoloso Poco Nuvoloso 20 10 52 1016 10 SO 9.3
Ieri h: 10:50 poco_nuvoloso Poco Nuvoloso 20 9 49 1016 10 SO 9.3
Ieri h: 10:20 poco_nuvoloso Poco Nuvoloso 21 8 43 1017 10 N/NO 9.3
Ieri h: 09:50 nuvoloso Nuvoloso 19 8 48 1017 10 N/NE 9.3
Ieri h: 09:20 nuvoloso Nuvoloso 19 8 48 1017 10 N/NE 11.1
Ieri h: 08:20 nuvoloso Nuvoloso 19 7 45 1017 10 N 3.7
Ieri h: 07:50 nuvoloso Nuvoloso 18 6 45 1017 10 NE 16.7
Ieri h: 07:20 nuvoloso Nuvoloso 18 6 45 1017 10 N/NE 14.8